Regional Weather Roundup
Issued by NWS

Home | Current Version | Previous Version | Text Only | Print | Product List | Glossary On
Versions: 1 2 3 4 5 6 7 8 9 10 11 12 13 14 15 16 17 18 19 20 21 22 23 24 25 26 27 28 29 30 31 32 33 34 35 36 37 38 39 40 41 42 43 44 45 46 47 48 49 50
000
ASUS44 KOUN 050310
RWROK

WEATHER ROUNDUP FOR OKLAHOMA
NATIONAL WEATHER SERVICE NORMAN OK
900 PM CST WED MAR 04 2015

NOTE: "FAIR" INDICATES FEW OR NO CLOUDS BELOW 12,000 FEET WITH NO
      SIGNIFICANT WEATHER AND/OR OBSTRUCTIONS TO VISIBILITY.

OKZ001>007-009>012-014-015-017-050400-
NORTHWEST OKLAHOMA AND THE PANHANDLE

CITY           SKY/WX    TMP DP  RH WIND       PRES   REMARKS
GAGE           CLOUDY    23  14  68 N3        30.36R
ENID/WOODRING  CLOUDY    27  19  74 N9        30.38R WCI  17
$$

OKZ016-021>023-033>039-044-045-050400-
SOUTHWEST OKLAHOMA

CITY           SKY/WX    TMP DP  RH WIND       PRES   REMARKS
LAWTON/REGL    LGT SNOW  25  20  81 N13       30.39R WCI  14
LAWTON/FT SILL FLURRIES  23  21  93 N14       30.37R WCI  11
FREDERICK      LGT SNOW  23  20  88 N15       30.37R VSB 3/4 WCI  10
CLINTON        CLOUDY    23  18  81 N10       30.36R WCI  12
HOBART         LGT SNOW  22  19  89 N15       30.36R FOG     WCI   9
ALTUS AFB      FRZ RAIN  23  21  93 N8        30.41R WCI  14
$$

OKZ018>020-024>031-050400-
CENTRAL OKLAHOMA

CITY           SKY/WX    TMP DP  RH WIND       PRES   REMARKS
OKLAHOMA CITY  LGT SNOW  24  19  81 NE13G23   30.34R VSB 3/4 WCI  12
OKC/WILEY POST LGT SNOW  24  20  84 NE15      30.36S FOG     WCI  11
OKC/TINKER AFB LGT SNOW  23  20  88 N17       30.33R FOG     WCI   9
STILLWATER     CLOUDY    27  12  53 NE9       30.38R WCI  18
GUTHRIE        CLOUDY    26  14  60 NE8       30.38R WCI  18
$$

OKZ008-013-054>072-050400-
NORTHEAST OKLAHOMA

CITY           SKY/WX    TMP DP  RH WIND       PRES   REMARKS
TULSA          FLURRIES  27  17  66 NE6       30.38R WCI  20
TULSA/JONES    CLOUDY    26  20  77 CALM      30.40R
PONCA CITY     CLOUDY    26  16  65 CALM      30.40R
BARTLESVILLE   CLOUDY    26  11  52 N5        30.43R WCI  20
MUSKOGEE       FLURRIES  24  19  81 N17       30.37S WCI  11
$$

OKZ032-040>043-046>053-073>077-050400-
SOUTH CENTRAL/SOUTHEAST OKLAHOMA

CITY           SKY/WX    TMP DP  RH WIND       PRES   REMARKS
MCALESTER      LGT SNOW  25  21  85 N17G26    30.31F FOG     WCI  12
$$



USA.gov is the U.S. government's official web portal to all federal, state and local government web resources and services.